Retour au catalogue

STARLINK-34844

ActifCommunicationsVLEO
NORAD 66486·PAYLOAD·🇺🇸 United States

Lancé Nov 15, 2025 depuis Cape Canaveral Space Force Station

Loading…

Prochains Passages (prochaines 24 heures)

TLE

FraisSource: CelesTrak SupGP

Époque: Sep 15, 2026, 03:39 UTC

1 66486C 25263B   26258.15256944  .00039396  00000+0  14266-2 0  2585
2 66486  43.0028   0.4126 0001493 263.5513 262.6535 15.27566411    12

Suivez STARLINK-34844 en temps réel avec AllMySat

Download on the App Store